| time (UTC) | temp F | wind direction | speed MPH | gust MPH | rain 1hr in | rain 24hr in | rain mn in | humidity % | barometer mb |
| 20260509230732 | 68 | 226 | 4.0 | 10.0 | 0.00 | 0.40 | 0.23 | 57 | 1003.0 |
| 20260509225730 | 68 | 220 | 4.0 | 13.0 | 0.00 | 0.40 | 0.23 | 56 | 1003.0 |
| 20260509225233 | 68 | 230 | 5.0 | 13.0 | 0.00 | 0.40 | 0.23 | 56 | 1003.1 |
| 20260509224732 | 68 | 228 | 5.0 | 12.0 | 0.00 | 0.40 | 0.23 | 56 | 1002.9 |
| 20260509224232 | 68 | 226 | 6.0 | 16.0 | 0.00 | 0.40 | 0.23 | 55 | 1002.7 |
| 20260509223731 | 68 | 226 | 6.0 | 16.0 | 0.00 | 0.40 | 0.23 | 55 | 1002.7 |
| 20260509223231 | 68 | 219 | 5.0 | 13.0 | 0.00 | 0.41 | 0.23 | 55 | 1002.7 |
| 20260509222730 | 68 | 221 | 5.0 | 13.0 | 0.00 | 0.41 | 0.23 | 56 | 1002.8 |
| 20260509222231 | 68 | 222 | 5.0 | 10.0 | 0.00 | 0.41 | 0.23 | 56 | 1002.8 |
| 20260509221729 | 68 | 216 | 5.0 | 12.0 | 0.00 | 0.41 | 0.23 | 55 | 1002.9 |
| 20260509220733 | 68 | 218 | 3.0 | 15.0 | 0.00 | 0.41 | 0.23 | 55 | 1002.6 |
| 20260509220232 | 68 | 214 | 3.0 | 9.0 | 0.00 | 0.41 | 0.23 | 57 | 1002.7 |
| 20260509214730 | 68 | 217 | 6.0 | 15.0 | 0.00 | 0.43 | 0.23 | 53 | 1002.8 |
| 20260509213233 | 68 | 208 | 5.0 | 10.0 | 0.00 | 0.43 | 0.23 | 54 | 1002.7 |
| 20260509212231 | 68 | 211 | 5.0 | 16.0 | 0.00 | 0.43 | 0.23 | 55 | 1002.9 |
| 20260509211731 | 68 | 218 | 6.0 | 13.0 | 0.00 | 0.43 | 0.23 | 55 | 1002.9 |
| 20260509210730 | 69 | 216 | 5.0 | 14.0 | 0.00 | 0.43 | 0.23 | 57 | 1003.1 |
| 20260509210233 | 69 | 232 | 6.0 | 15.0 | 0.00 | 0.43 | 0.23 | 57 | 1003.2 |
| 20260509205733 | 69 | 220 | 5.0 | 16.0 | 0.00 | 0.43 | 0.23 | 56 | 1003.3 |
| 20260509205232 | 68 | 205 | 5.0 | 16.0 | 0.00 | 0.43 | 0.23 | 57 | 1003.3 |
| 20260509204732 | 68 | 215 | 4.0 | 13.0 | 0.00 | 0.43 | 0.23 | 59 | 1003.4 |
| 20260509204231 | 68 | 217 | 5.0 | 13.0 | 0.00 | 0.43 | 0.23 | 58 | 1003.5 |
| 20260509203730 | 68 | 211 | 5.0 | 15.0 | 0.00 | 0.43 | 0.23 | 58 | 1003.6 |
| 20260509202730 | 69 | 207 | 5.0 | 13.0 | 0.00 | 0.44 | 0.23 | 59 | 1003.8 |
| 20260509202232 | 69 | 216 | 6.0 | 13.0 | 0.00 | 0.46 | 0.23 | 56 | 1003.7 |
| 20260509201732 | 70 | 235 | 4.0 | 11.0 | 0.00 | 0.46 | 0.23 | 60 | 1003.8 |
| 20260509200731 | 69 | 227 | 5.0 | 13.0 | 0.00 | 0.46 | 0.23 | 57 | 1004.0 |
| 20260509200231 | 69 | 223 | 4.0 | 13.0 | 0.00 | 0.46 | 0.23 | 56 | 1004.0 |
| 20260509195730 | 69 | 225 | 5.0 | 11.0 | 0.00 | 0.46 | 0.23 | 58 | 1004.0 |
| 20260509194730 | 69 | 230 | 5.0 | 13.0 | 0.00 | 0.46 | 0.23 | 57 | 1004.1 |
| 20260509194232 | 69 | 226 | 5.0 | 11.0 | 0.00 | 0.46 | 0.23 | 58 | 1004.2 |
| 20260509193732 | 69 | 229 | 6.0 | 12.0 | 0.00 | 0.46 | 0.23 | 59 | 1004.2 |
| 20260509193232 | 69 | 230 | 5.0 | 12.0 | 0.00 | 0.46 | 0.23 | 58 | 1004.3 |
| 20260509192731 | 69 | 228 | 4.0 | 11.0 | 0.00 | 0.46 | 0.23 | 58 | 1004.4 |
| 20260509192231 | 68 | 226 | 4.0 | 11.0 | 0.00 | 0.46 | 0.23 | 58 | 1004.6 |
| 20260509191230 | 68 | 229 | 6.0 | 17.0 | 0.00 | 0.46 | 0.23 | 56 | 1004.8 |
| 20260509190729 | 69 | 235 | 6.0 | 17.0 | 0.00 | 0.46 | 0.23 | 57 | 1004.8 |
| 20260509185733 | 69 | 235 | 4.0 | 11.0 | 0.00 | 0.46 | 0.23 | 59 | 1004.8 |
| 20260509185231 | 68 | 239 | 5.0 | 13.0 | 0.00 | 0.46 | 0.23 | 57 | 1004.8 |
| 20260509184731 | 68 | 237 | 5.0 | 13.0 | 0.00 | 0.46 | 0.23 | 58 | 1004.9 |
| 20260509184232 | 68 | 226 | 4.0 | 12.0 | 0.00 | 0.46 | 0.23 | 60 | 1004.8 |
| 20260509182729 | 69 | 228 | 5.0 | 12.0 | 0.00 | 0.46 | 0.23 | 58 | 1005.0 |
| 20260509182233 | 69 | 223 | 4.0 | 14.0 | 0.00 | 0.46 | 0.23 | 60 | 1004.9 |
| 20260509181732 | 69 | 219 | 5.0 | 14.0 | 0.00 | 0.46 | 0.23 | 57 | 1005.0 |
| 20260509181232 | 70 | 217 | 5.0 | 14.0 | 0.00 | 0.46 | 0.23 | 57 | 1005.0 |
| 20260509180731 | 70 | 217 | 3.0 | 7.0 | 0.00 | 0.46 | 0.23 | 60 | 1004.9 |
| 20260509180231 | 69 | 208 | 4.0 | 10.0 | 0.00 | 0.46 | 0.23 | 61 | 1004.9 |
| 20260509175230 | 69 | 216 | 5.0 | 11.0 | 0.00 | 0.47 | 0.23 | 59 | 1005.1 |
| 20260509174733 | 70 | 229 | 5.0 | 12.0 | 0.00 | 0.47 | 0.23 | 59 | 1005.1 |
| 20260509174232 | 69 | 225 | 5.0 | 12.0 | 0.00 | 0.47 | 0.23 | 59 | 1005.2 |
| 20260509172230 | 69 | 188 | 3.0 | 10.0 | 0.00 | 0.49 | 0.23 | 60 | 1004.9 |
| 20260509171233 | 68 | 230 | 4.0 | 9.0 | 0.00 | 0.49 | 0.23 | 66 | 1005.0 |
| 20260509170231 | 67 | 226 | 3.0 | 9.0 | 0.00 | 0.49 | 0.23 | 64 | 1004.8 |
| 20260509165730 | 67 | 233 | 3.0 | 8.0 | 0.00 | 0.49 | 0.23 | 65 | 1005.0 |
| 20260509165230 | 66 | 224 | 4.0 | 8.0 | 0.00 | 0.49 | 0.23 | 66 | 1005.1 |
| 20260509164729 | 66 | 224 | 4.0 | 10.0 | 0.00 | 0.49 | 0.23 | 68 | 1005.3 |
| 20260509164233 | 65 | 229 | 4.0 | 10.0 | 0.00 | 0.49 | 0.23 | 65 | 1005.4 |